Location: Unspecified
(0.0000°N, 0.0000°E)
Time: 05:25:07
(UTC+00:00)

CZ-4C DEB - Pass Details

Date: 11 March 2026
Orbit: 805 x 1381 km, 63.4° (Epoch: 15 April)

Event Time Altitude Azimuth Distance (km) Brightness Sun altitude
Rises 19:29:16 0° 355° (N) 4,199 ? -19.8°
Reaches altitude 10° 19:32:15 10° 3° (N) 3,298 ? -20.5°
Maximum altitude 19:39:37 37° 68° (ENE) 1,994 ? -22.4°
Enters shadow 19:40:22 36° 79° (ENE) 2,019 ? -22.6°
